Showing default

TOMORROW-R2, 56962

Orbit data source: Space-Track

TOMORROW-R2, 56962 is a payload satellite owned by Tomorrow.io (US) in SSO that was launched on Mon, 12 Jun 2023 UTC via an FALCON 9 launch vehicle from the Air Force Western Test Range (AFWTR). Payload-class satellites include a variety of spacecraft equipped with specific instruments for various scientific and technological missions. These include communications satellites like Starlink; space stations such as the ISS; scientific satellites like the Hubble; Earth observation satellites from companies like Planet Labs, Umbra, and HawkEye 360; GPS; miniature CubeSats for education and research; and military/defense satellites.

Loading next visibility...
Identifier
56962, 2023-084AG
Orbit
SSO
Country
Flag of USUS
Related business
Manufacturer
Astro Digital
Mission
Operational Commercial Radar Imaging
Bus & Motor
CORVUS-XL, Unknown motor
Mass
85 kg wet, 85 kg dry
Launch date (UTC)
2023-06-12 (3 years ago)
Launch vehicle
FALCON 9
Launch site
Air Force Western Test Range (AFWTR)
Object type
Payload
Rocket body
Debris
Shape & HBR
Box + 1 Dish, 1.0 m
Radar Cross Section
0.425 m², Medium (>0.1 m² and < 1m²)

Expand to show TLE details & history
Last TLE update: 17 hours ago

TLE from 17 hours ago
0 TOMORROW-R2
1 56962U 23084AG  26034.37497991  .00073401  00000-0  72702-3 0  9995
2 56962  97.5867 184.8212 0004093  26.8932 333.2539 15.65591717147911
Epoch: 2026-02-03T08:59Z
TLE epoch observation values (Epoch: 2026-02-03T08:59:58.264Z)
Latitude
0.00003°
Longitude
-83.72839°
Altitude
372.217 km
Speed
7.688 km/s
True Right ascension
12h 19m 17s
True Declination
0° 00' 00"
Sunlit
Object was in full shadow at epoch
Visualization orbit readout
Latitude
Unknown
Longitude
Unknown
Altitude
Unknown
Speed
Unknown
Apparent Right ascension
Unknown
Apparent Declination
Unknown
Sunlit
N/A
Visualization observer readout
Local Sidereal Time
04:15:43
Azimuth
Unknown
Elevation
Unknown
Doppler factor
Unknown
Orbital elements
Apogee altitude
371.212 km
Perigee altitude
365.689 km
Semi-major axis
6,746.588 km
Eccentricity
0.00041
Inclination
97.5867°
RAAN
184.8212°
Arg. of periapsis
26.8932°
True anomaly
333.23278°
Mean anomaly
333.2539°
Eccentric anomaly
333.24334°
Mean motion
3.91667 °/min
Orbital period
91.91 mins
BSTAR
0.00072702
Loading maneuver chart data...
Computing Atmospheric mass density...
Loading historical data...
Loading historical data...
Loading historical data...
Loading historical data...
Loading historical data...
Loading historical data...
Loading historical data...

Documentation

Showing up to 5 results
|